When you browse on this site, cookies collect data to enhance your experience and personalize the content and advertising you see.
Visit our Privacy Policy to learn more. By continuing to use the site, you agree to this use of cookies and data.
  • In Czech Republic
  • List of Countries
  • For 7 days
  • Water Temperature
  • Satellite Maps
  • Weather Map
  • Weather Widgets
  • user-avatar
    Login

    Hourly Weather Sudily

    Today, 21 May, Tuesday

    Time Temperature Precipitation Wind Pressure Humidity
    00:00 +15°C° 0 mm 4 mps 747 mmHg 80%
    01:00 +14°C° 0 mm 4 mps 747 mmHg 81%
    02:00 +14°C° 0 mm 3 mps 747 mmHg 80%
    03:00 +14°C° 0 mm 4 mps 747 mmHg 81%
    04:00 +14°C° 0 mm 4 mps 747 mmHg 81%
    05:00 +14°C° 0 mm 4 mps 747 mmHg 81%
    06:00 +15°C° 0 mm 5 mps 747 mmHg 75%
    07:00 +17°C° 0 mm 5 mps 747 mmHg 68%
    08:00 +20°C° 0 mm 6 mps 747 mmHg 60%
    09:00 +21°C° 0 mm 6 mps 746 mmHg 58%
    10:00 +22°C° 0 mm 6 mps 746 mmHg 55%
    11:00 +23°C° 0 mm 6 mps 746 mmHg 52%
    12:00 +23°C° 0 mm 6 mps 746 mmHg 52%
    13:00 +23°C° 0 mm 6 mps 746 mmHg 52%
    14:00 +26°C° 0 mm 5 mps 745 mmHg 54%
    15:00 +23°C° 0.5 mm 5 mps 745 mmHg 61%
    16:00 +22°C° 0.5 mm 5 mps 744 mmHg 67%
    17:00 +21°C° 0.5 mm 5 mps 744 mmHg 74%
    18:00 +19°C° 0.3 mm 5 mps 744 mmHg 79%
    19:00 +18°C° 0.3 mm 4 mps 744 mmHg 84%
    20:00 +17°C° 0.3 mm 4 mps 744 mmHg 90%
    21:00 +15°C° 0.2 mm 4 mps 743 mmHg 91%
    22:00 +15°C° 0.2 mm 4 mps 743 mmHg 92%
    23:00 +16°C° 0.2 mm 3 mps 743 mmHg 93%

    Tomorrow, 22 May, Wednesday

    Time Temperature Precipitation Wind Pressure Humidity
    00:00 +14°C° 0.2 mm 3 mps 743 mmHg 94%
    01:00 +14°C° 0.2 mm 3 mps 743 mmHg 95%
    02:00 +13°C° 0.2 mm 3 mps 742 mmHg 95%
    03:00 +13°C° 0 mm 3 mps 742 mmHg 96%
    04:00 +13°C° 0 mm 3 mps 742 mmHg 96%
    05:00 +13°C° 0 mm 3 mps 742 mmHg 96%
    06:00 +15°C° 0 mm 2 mps 742 mmHg 92%
    07:00 +17°C° 0 mm 2 mps 742 mmHg 87%
    08:00 +18°C° 0 mm 2 mps 742 mmHg 83%
    09:00 +20°C° 0 mm 2 mps 741 mmHg 74%
    10:00 +21°C° 0 mm 2 mps 741 mmHg 66%
    11:00 +24°C° 0 mm 2 mps 741 mmHg 58%
    12:00 +24°C° 0.2 mm 2 mps 741 mmHg 57%
    13:00 +24°C° 0.2 mm 2 mps 740 mmHg 55%
    14:00 +25°C° 0.2 mm 2 mps 740 mmHg 54%
    15:00 +24°C° 0.5 mm 2 mps 740 mmHg 59%
    16:00 +23°C° 0.5 mm 2 mps 740 mmHg 64%
    17:00 +23°C° 0.5 mm 2 mps 739 mmHg 70%
    18:00 +21°C° 0.2 mm 1 mps 739 mmHg 74%
    19:00 +20°C° 0.2 mm 1 mps 739 mmHg 78%
    20:00 +19°C° 0.2 mm 1 mps 739 mmHg 83%
    21:00 +16°C° 0 mm 0 mps 739 mmHg 83%
    22:00 +15°C° 0 mm 0 mps 739 mmHg 84%
    23:00 +14°C° 0 mm 0 mps 739 mmHg 85%

    Day after tomorrow, 23 May, Thursday

    Time Temperature Precipitation Wind Pressure Humidity
    00:00 +14°C° 0 mm 0 mps 739 mmHg 86%
    01:00 +14°C° 0 mm 0 mps 739 mmHg 86%
    02:00 +13°C° 0 mm 0 mps 739 mmHg 87%
    03:00 +15°C° 0 mm 1 mps 739 mmHg 87%
    04:00 +15°C° 0 mm 1 mps 739 mmHg 87%
    05:00 +15°C° 0 mm 1 mps 739 mmHg 86%
    06:00 +18°C° 0 mm 1 mps 739 mmHg 81%
    07:00 +19°C° 0 mm 1 mps 739 mmHg 76%
    08:00 +21°C° 0 mm 1 mps 739 mmHg 71%
    09:00 +22°C° 0.1 mm 1 mps 739 mmHg 65%
    10:00 +24°C° 0.1 mm 2 mps 739 mmHg 59%
    11:00 +25°C° 0.1 mm 2 mps 739 mmHg 53%
    12:00 +25°C° 0 mm 2 mps 739 mmHg 52%
    13:00 +26°C° 0 mm 3 mps 739 mmHg 52%
    14:00 +26°C° 0 mm 3 mps 739 mmHg 51%
    15:00 +26°C° 0.1 mm 3 mps 738 mmHg 55%
    16:00 +25°C° 0.1 mm 3 mps 738 mmHg 59%
    17:00 +25°C° 0.1 mm 2 mps 738 mmHg 62%
    18:00 +23°C° 0.2 mm 2 mps 738 mmHg 68%
    19:00 +21°C° 0.2 mm 1 mps 739 mmHg 74%
    20:00 +19°C° 0.2 mm 1 mps 739 mmHg 80%
    21:00 +19°C° 0 mm 1 mps 739 mmHg 81%
    22:00 +16°C° 0 mm 0 mps 739 mmHg 83%
    23:00 +15°C° 0 mm 0 mps 739 mmHg 84%

    24 May, Friday

    Time Temperature Precipitation Wind Pressure Humidity
    00:00 +15°C° 0 mm 0 mps 739 mmHg 85%
    01:00 +16°C° 0 mm 1 mps 739 mmHg 86%
    02:00 +15°C° 0 mm 1 mps 739 mmHg 87%
    03:00 +16°C° 0 mm 1 mps 739 mmHg 86%
    04:00 +16°C° 0 mm 1 mps 739 mmHg 86%
    05:00 +16°C° 0 mm 1 mps 740 mmHg 86%
    06:00 +19°C° 0 mm 1 mps 740 mmHg 80%
    07:00 +21°C° 0 mm 1 mps 740 mmHg 74%
    08:00 +22°C° 0 mm 1 mps 740 mmHg 68%
    09:00 +23°C° 0.6 mm 1 mps 740 mmHg 64%
    10:00 +24°C° 0.6 mm 1 mps 740 mmHg 59%
    11:00 +25°C° 0.6 mm 2 mps 740 mmHg 55%
    12:00 +26°C° 0.5 mm 2 mps 740 mmHg 55%
    13:00 +26°C° 0.5 mm 2 mps 740 mmHg 55%
    14:00 +26°C° 0.5 mm 2 mps 740 mmHg 55%
    15:00 +26°C° 0.1 mm 2 mps 739 mmHg 58%
    16:00 +25°C° 0.1 mm 2 mps 739 mmHg 61%
    17:00 +25°C° 0.1 mm 2 mps 739 mmHg 64%
    18:00 +23°C° 0.3 mm 2 mps 739 mmHg 69%
    19:00 +20°C° 0.3 mm 2 mps 739 mmHg 75%
    20:00 +19°C° 0.3 mm 3 mps 739 mmHg 81%
    21:00 +18°C° 0.3 mm 2 mps 739 mmHg 85%
    22:00 +17°C° 0.3 mm 2 mps 739 mmHg 89%
    23:00 +16°C° 0.3 mm 2 mps 738 mmHg 92%

    25 May, Saturday

    Time Temperature Precipitation Wind Pressure Humidity
    00:00 +16°C° 1.3 mm 2 mps 738 mmHg 93%
    01:00 +16°C° 1.3 mm 2 mps 738 mmHg 93%
    02:00 +16°C° 1.3 mm 1 mps 738 mmHg 94%
    03:00 +16°C° 0 mm 1 mps 738 mmHg 93%
    04:00 +16°C° 0 mm 1 mps 737 mmHg 91%
    05:00 +16°C° 0 mm 1 mps 737 mmHg 90%
    06:00 +18°C° 0.4 mm 1 mps 737 mmHg 86%
    07:00 +20°C° 0.4 mm 1 mps 737 mmHg 82%
    08:00 +21°C° 0.4 mm 1 mps 737 mmHg 78%
    09:00 +20°C° 1.2 mm 2 mps 736 mmHg 76%
    10:00 +21°C° 1.2 mm 2 mps 736 mmHg 73%
    11:00 +22°C° 1.2 mm 3 mps 736 mmHg 70%
    12:00 +22°C° 0.5 mm 3 mps 736 mmHg 70%
    13:00 +22°C° 0.5 mm 3 mps 736 mmHg 69%
    14:00 +22°C° 0.5 mm 3 mps 736 mmHg 69%
    15:00 +21°C° 1.3 mm 3 mps 735 mmHg 73%
    16:00 +20°C° 1.3 mm 3 mps 735 mmHg 78%
    17:00 +20°C° 1.3 mm 4 mps 735 mmHg 82%
    18:00 +18°C° 1.2 mm 3 mps 735 mmHg 85%
    19:00 +17°C° 1.2 mm 3 mps 735 mmHg 88%
    20:00 +16°C° 1.2 mm 3 mps 735 mmHg 90%
    21:00 +14°C° 0 mm 3 mps 735 mmHg 91%
    22:00 +14°C° 0 mm 3 mps 735 mmHg 92%
    23:00 +13°C° 0 mm 3 mps 736 mmHg 93%

    26 May, Sunday

    Time Temperature Precipitation Wind Pressure Humidity
    00:00 +12°C° 0 mm 3 mps 736 mmHg 93%
    01:00 +12°C° 0 mm 2 mps 736 mmHg 93%
    02:00 +12°C° 0 mm 2 mps 736 mmHg 92%
    03:00 +11°C° 0 mm 3 mps 736 mmHg 93%
    04:00 +11°C° 0 mm 3 mps 736 mmHg 93%
    05:00 +10°C° 0 mm 3 mps 737 mmHg 93%
    06:00 +11°C° 0 mm 4 mps 737 mmHg 89%
    07:00 +12°C° 0 mm 4 mps 737 mmHg 84%
    08:00 +13°C° 0 mm 5 mps 737 mmHg 79%
    09:00 +14°C° 0 mm 5 mps 737 mmHg 75%
    10:00 +15°C° 0 mm 5 mps 737 mmHg 71%
    11:00 +16°C° 0 mm 5 mps 737 mmHg 67%
    12:00 +15°C° 0 mm 5 mps 737 mmHg 68%
    13:00 +15°C° 0 mm 5 mps 737 mmHg 68%
    14:00 +15°C° 0 mm 5 mps 737 mmHg 69%
    15:00 +15°C° 0.1 mm 5 mps 737 mmHg 71%
    16:00 +14°C° 0.1 mm 5 mps 737 mmHg 73%
    17:00 +14°C° 0.1 mm 5 mps 737 mmHg 75%
    18:00 +13°C° 0 mm 5 mps 737 mmHg 78%
    19:00 +12°C° 0 mm 4 mps 737 mmHg 80%
    20:00 +11°C° 0 mm 3 mps 737 mmHg 83%
    21:00 +10°C° 0 mm 3 mps 737 mmHg 86%
    22:00 +10°C° 0 mm 4 mps 736 mmHg 88%
    23:00 +10°C° 0 mm 4 mps 736 mmHg 91%
    Show more